Wetbulb
62.74 60.06 57.10 53.85 41.85 37.56 34.27 39.53 45.35 46.51 47.43 51.07 52.55 52.59 61.80 62.70 60.26 57.23 72.20 74.19 75.45 76.39 77.25 77.61 77.92 78.03 77.75 77.16 76.79 76.36 76.09 76.16 76.61 76.91 76.89 76.69 76.77 76.75 76.97 77.10 77.30 76.95 76.23 75.89 75.38 74.77 74.54 73.98 73.72
62.07 60.36 55.82 49.01 36.96 31.07 34.57 40.84 43.49 46.58 49.02 50.17 49.89 50.86 60.42 62.13 66.87 69.03 71.58 74.81 75.23 76.42 76.84 76.81 77.72 77.65 77.44 77.01 76.43 76.21 76.06 76.04 76.66 76.86 76.76 76.71 76.61 76.69 77.24 77.32 77.18 76.70 75.87 75.30 74.81 74.26 74.11 73.89 73.37
59.78 60.59 51.49 44.48 34.17 32.98 34.01 39.87 44.22 47.12 47.54 47.68 47.12 51.79 63.61 65.22 66.80 69.75 73.71 74.66 75.21 75.84 76.46 76.71 77.44 77.31 77.21 76.91 76.48 76.16 75.86 75.91 76.54 76.96 76.79 76.49 76.61 76.78 76.96 77.07 77.08 76.75 75.87 75.39 74.66 74.18 73.87 73.34 73.09
53.66 50.28 49.27 39.41 35.50 37.95 39.07 42.82 43.88 46.81 49.15 49.12 48.12 48.74 67.60 70.32 69.16 72.95 74.65 74.80 74.21 75.22 76.01 77.30 77.16 77.06 76.99 76.79 76.51 76.13 75.99 76.09 76.54 76.77 76.74 76.44 76.56 76.53 76.73 76.76 76.82 76.65 75.78 75.25 74.44 74.11 73.94 73.36 72.88
50.81 45.93 38.55 34.37 37.24 40.04 44.62 45.87 46.85 45.69 47.16 48.21 48.20 49.46 65.65 70.71 74.05 74.11 73.93 73.87 72.94 74.43 76.22 76.39 77.14 77.09 76.81 76.84 76.54 76.08 75.91 75.86 76.29 76.37 76.59 76.46 76.16 76.06 76.11 76.09 76.12 75.97 75.11 74.29 74.00 74.04 73.92 73.77 73.13
43.79 43.69 35.45 33.82 38.76 43.56 45.19 47.20 46.90 47.36 48.13 48.32 47.90 55.91 64.74 72.74 72.78 73.54 73.62 72.47 74.08 74.49 75.73 76.16 77.19 76.89 76.48 76.41 76.26 75.83 75.58 75.73 76.11 76.09 76.21 76.16 76.13 75.98 75.84 75.72 75.70 75.57 75.22 74.57 74.04 73.95 73.99 73.15 72.61
39.33 36.79 33.67 35.44 38.75 41.38 45.47 46.87 45.39 44.86 45.42 47.19 50.13 46.51 65.43 71.24 73.05 73.71 72.85 73.82 74.18 74.82 75.15 75.70 75.92 76.42 76.66 76.28 75.85 75.70 75.53 75.70 75.58 75.68 75.73 75.93 76.14 75.95 75.95 75.81 75.83 75.71 75.16 74.81 74.44 73.97 73.55 72.78 72.46
41.99 37.61 32.74 34.29 36.97 37.78 45.26 46.66 46.25 45.45 46.98 51.10 51.65 46.49 59.74 71.29 73.74 73.37 73.04 73.59 73.91 74.14 74.93 75.14 75.44 74.76 74.79 75.13 75.90 75.62 75.63 75.60 75.37 75.70 75.82 75.79 75.99 75.94 75.89 74.89 75.54 75.65 75.08 74.68 73.99 73.57 73.32 72.83 72.46
41.17 32.69 29.23 33.16 37.07 39.42 43.82 42.45 47.32 49.35 47.50 48.98 49.99 50.24 61.38 73.67 73.95 72.12 71.84 72.19 72.56 73.26 73.90 74.36 74.39 73.92 73.89 74.00 74.91 75.47 75.86 75.87 75.64 75.57 75.68 74.81 73.61 73.66 74.45 74.51 75.24 75.05 74.71 74.29 73.67 73.23 72.83 72.73 72.58
37.39 30.48 32.84 40.59 41.16 40.41 42.76 42.41 45.06 45.77 45.75 46.39 48.35 51.49 56.23 60.48 69.26 70.73 70.39 70.17 71.07 71.55 72.77 73.53 73.82 73.43 73.33 73.58 73.70 73.68 73.93 73.95 73.84 73.95 74.04 72.78 71.99 71.60 73.18 73.59 74.99 74.78 74.38 73.91 73.42 73.05 72.68 72.34 68.37
37.12 34.32 38.97 41.01 41.82 42.18 42.22 42.13 43.91 43.55 41.58 44.84 45.95 48.27 52.24 58.75 59.77 66.75 70.63 70.65 70.81 71.72 72.37 73.33 73.41 73.35 72.70 72.93 72.79 72.94 73.31 73.21 73.46 73.40 71.74 70.00 70.74 70.71 70.33 70.16 71.79 70.31 72.78 69.65 71.05 70.05 69.65 68.65 68.27
37.25 42.04 41.70 41.63 43.09 40.53 40.24 42.86 43.08 43.11 42.61 47.02 47.73 49.35 50.86 52.89 54.93 59.25 60.90 70.62 70.59 70.82 71.63 72.96 73.19 72.80 72.55 72.30 72.03 72.22 71.65 71.90 71.89 72.22 69.95 68.69 68.17 68.42 68.89 69.16 68.96 68.17 68.87 67.95 67.88 68.33 68.40 68.48 68.24
37.76 41.24 44.03 44.39 42.78 42.26 43.92 42.59 42.04 43.04 46.23 47.86 48.31 49.36 48.81 51.00 51.22 54.80 59.54 67.37 70.44 69.72 70.88 72.00 72.69 72.42 72.31 71.77 71.41 71.57 70.69 70.21 70.60 70.95 70.12 69.03 68.04 68.34 68.53 67.79 67.59 67.50 67.09 67.54 66.91 66.84 66.61 66.60 66.56
42.26 43.54 43.67 43.19 42.41 42.23 41.69 42.65 42.39 45.58 47.81 46.62 47.27 46.85 46.89 49.17 50.56 50.12 52.51 63.58 69.45 69.41 69.53 70.73 71.22 71.63 72.08 70.67 70.02 69.57 68.40 67.94 68.18 70.03 69.18 69.16 68.95 68.19 68.53 67.81 67.04 66.18 66.61 66.66 66.23 66.78 65.92 66.62 68.92
43.81 39.55 42.20 42.43 42.34 41.53 42.94 40.82 41.94 46.39 46.14 45.26 45.79 46.98 46.81 47.76 49.53 48.98 50.48 55.38 69.19 68.09 68.06 68.41 67.96 70.43 70.28 68.22 68.34 66.41 66.22 66.30 66.59 68.86 67.94 69.09 69.71 68.26 68.10 68.48 66.67 66.07 66.42 66.57 65.60 66.86 67.94 69.51 67.78
39.48 37.17 31.54 39.67 42.88 44.20 41.66 36.46 43.71 45.75 44.65 45.03 45.53 46.07 47.16 46.90 47.96 48.09 50.32 67.06 68.04 67.17 67.29 67.80 69.97 67.68 67.14 67.29 66.80 66.32 65.10 66.11 66.30 68.17 68.30 69.05 70.44 69.75 68.75 67.44 66.12 66.16 66.54 66.22 67.91 69.55 68.91 67.53 66.60
35.12 30.42 33.95 38.23 43.25 43.05 41.04 38.51 43.80 45.64 44.27 44.33 44.86 44.07 45.87 46.38 47.12 48.48 49.64 60.37 68.42 67.41 67.14 68.50 68.38 67.04 66.79 67.02 67.21 66.58 65.31 66.76 66.44 68.05 67.70 68.63 70.46 70.52 68.22 67.51 66.93 66.25 69.24 68.98 68.47 66.10 65.80 64.80 64.69
31.85 32.81 35.23 36.17 42.11 43.15 40.84 40.78 43.87 44.13 43.62 43.74 44.78 44.22 45.00 46.96 46.82 48.26 49.37 65.92 69.06 67.72 67.39 68.41 68.76 69.00 68.76 70.31 67.48 67.27 66.61 67.92 67.50 69.09 68.17 69.18 70.11 69.91 67.76 67.08 67.58 70.13 68.98 66.62 65.47 63.96 63.32 62.82 64.52
39.94 37.84 37.01 40.72 44.42 41.16 40.96 41.30 43.47 44.41 42.79 41.29 41.34 42.88 43.15 45.67 48.37 48.42 49.80 66.69 69.00 68.09 67.29 67.54 68.58 69.12 68.06 69.40 68.50 68.60 66.71 68.20 68.22 69.47 69.35 69.31 70.02 69.82 70.19 69.91 69.46 68.87 67.86 66.53 64.93 63.33 60.82 60.40 61.08
40.07 37.38 37.48 41.44 44.01 42.18 41.02 40.64 44.04 42.90 43.29 43.12 43.79 44.47 43.70 43.94 47.04 48.54 48.58 65.67 67.94 67.65 67.55 67.61 68.79 69.23 68.78 69.09 69.16 69.69 69.15 69.49 69.67 70.04 70.05 70.73 70.26 70.01 69.96 68.87 67.18 65.58 64.80 64.09 63.86 63.01 62.14 60.35 59.52
38.62 37.15 37.37 37.32 41.11 42.19 40.63 38.80 41.38 44.90 44.34 45.00 45.74 44.90 45.22 46.26 46.33 47.82 48.16 54.16 66.80 67.07 66.80 67.17 67.58 67.93 67.49 66.98 69.68 70.58 69.89 70.20 69.94 69.61 70.04 70.38 70.73 70.75 69.42 67.90 65.65 64.17 63.65 62.84 62.33 62.04 60.79 59.33 58.54
34.77 41.38 40.83 39.25 36.83 32.20 42.20 29.60 38.19 41.15 43.08 44.45 45.71 44.85 44.84 45.75 47.28 48.16 48.11 47.57 65.37 66.76 66.79 67.25 66.84 66.87 64.30 64.58 68.66 69.42 68.71 68.08 69.76 70.02 69.43 70.56 70.71 69.35 67.79 66.00 64.75 63.53 63.79 62.92 61.98 61.19 60.40 59.92 56.30
38.82 43.63 40.49 38.82 35.00 33.37 35.84 33.61 36.39 41.60 40.30 42.71 45.11 46.23 45.90 46.15 46.51 46.27 47.28 47.77 63.38 66.55 65.93 66.37 66.34 65.65 65.69 67.16 69.51 69.62 68.60 69.42 70.23 69.16 68.53 68.67 67.77 67.03 66.33 65.19 64.48 63.14 62.29 60.89 59.74 58.54 56.74 55.30 53.82
43.67 39.17 38.26 37.48 33.59 27.97 33.35 33.15 33.55 36.98 39.57 42.71 44.83 45.08 46.81 46.99 48.22 49.21 48.74 48.35 52.45 64.80 65.33 65.98 65.86 65.57 67.37 69.70 70.21 69.87 68.61 69.06 68.22 67.38 67.29 67.11 66.31 65.70 64.88 64.52 62.49 60.92 60.19 58.94 58.18 56.76 55.71 54.97 53.74
39.66 33.58 27.25 26.92 25.65 26.61 35.77 33.15 34.71 40.42 43.53 44.16 44.10 45.69 47.24 47.92 47.79 49.31 46.92 47.10 50.40 64.75 64.60 64.69 65.35 65.20 66.62 69.28 69.84 69.76 68.21 69.31 67.79 67.31 66.76 65.36 64.68 64.63 63.89 62.74 61.40 59.33 59.08 58.18 57.06 56.23 55.15 53.65 53.08
33.96 33.00 24.36 21.28 19.23 25.42 34.72 29.74 33.67 42.33 45.90 46.58 47.45 46.43 46.24 46.57 47.04 48.44 49.68 48.88 49.61 65.41 66.05 66.12 63.94 63.17 66.01 67.19 66.56 67.88 68.69 68.69 68.06 67.45 66.35 64.99 63.99 64.03 62.65 60.97 59.75 59.01 58.42 57.72 56.33 55.37 54.71 54.47 53.89
31.91 28.01 35.96 31.41 31.80 28.01 28.87 32.84 38.66 42.13 42.31 44.12 44.50 45.00 44.79 44.98 47.82 47.68 49.07 46.35 50.28 62.75 66.40 66.88 66.04 63.50 65.47 65.92 63.44 68.05 69.23 68.19 66.66 65.74 65.04 64.57 64.14 61.97 60.84 59.30 58.34 58.41 57.23 56.02 54.86 54.29 54.15 53.98 52.82
36.32 38.96 27.66 32.94 24.94 23.07 25.94 28.54 29.70 36.53 39.05 41.77 42.37 42.50 44.05 45.29 46.79 45.45 46.27 46.47 49.92 63.34 66.20 66.62 68.33 65.76 65.22 69.18 66.04 66.20 67.65 67.18 65.22 64.78 64.35 63.28 61.94 60.58 58.64 58.25 58.15 57.02 55.97 55.19 54.42 54.84 53.99 52.81 51.77
32.27 30.22 35.10 34.78 32.89 24.07 23.55 26.33 36.07 37.50 39.36 39.97 41.76 44.08 43.93 44.33 46.99 46.57 45.86 47.51 52.06 62.91 65.99 66.75 68.26 68.20 68.18 68.57 67.29 66.00 66.31 65.86 65.08 64.53 63.25 61.58 60.24 59.14 58.14 57.57 56.38 55.66 55.08 54.66 54.40 54.18 54.03 53.11 52.28
36.63 35.56 35.79 30.32 29.14 32.28 28.17 29.09 41.00 38.83 40.45 41.23 42.15 44.97 43.59 46.26 45.89 48.42 47.17 47.72 52.73 60.56 65.61 66.40 66.81 66.99 66.94 67.09 66.11 65.67 65.46 65.31 64.17 62.49 61.18 60.28 58.65 58.17 57.74 56.66 56.41 56.24 55.25 54.23 54.68 54.74 54.23 53.34 52.00
MSLP
1010.66 1010.39 1010.27 1010.50 1011.83 1012.09 1011.01 1008.98 1006.76 1004.96 1003.97 1002.93 1002.25 1002.49 1001.38 1001.32 1002.29 1002.55 1001.26 1002.56 1003.59 1004.64 1004.74 1005.55 1006.33 1006.74 1007.10 1007.53 1007.74 1008.21 1008.69 1008.95 1009.39 1009.92 1010.35 1010.65 1010.94 1011.16 1011.44 1011.69 1012.04 1012.15 1012.23 1012.43 1012.55 1012.71 1012.89 1013.03 1013.12
1010.64 1010.30 1010.46 1011.10 1012.23 1012.51 1010.45 1007.90 1006.39 1004.27 1003.37 1002.57 1001.87 1001.19 1001.74 1001.69 1001.37 1001.95 1002.43 1002.62 1002.89 1004.38 1004.98 1005.51 1005.88 1006.67 1006.97 1007.58 1007.85 1008.16 1008.78 1009.15 1009.33 1009.78 1010.37 1010.64 1010.90 1011.31 1011.69 1011.89 1012.08 1012.38 1012.30 1012.53 1012.71 1012.79 1012.99 1013.01 1013.05
1010.66 1010.57 1011.13 1011.75 1012.21 1011.52 1009.93 1007.29 1005.81 1004.10 1003.76 1003.36 1002.32 1001.03 1000.43 1000.65 1000.87 1001.25 1001.21 1002.45 1003.13 1004.47 1004.59 1005.58 1005.93 1006.04 1006.98 1007.40 1007.73 1008.13 1008.64 1009.25 1009.55 1009.78 1010.27 1010.71 1010.96 1011.45 1011.80 1012.03 1012.18 1012.42 1012.54 1012.57 1012.67 1012.73 1012.95 1013.08 1013.07
1010.62 1011.11 1011.69 1011.82 1011.48 1009.87 1008.53 1006.85 1005.72 1004.82 1003.48 1002.97 1002.40 1001.27 1000.83 999.93 999.85 1000.41 1001.17 1002.03 1003.14 1004.06 1004.69 1005.35 1006.18 1006.43 1006.87 1007.51 1007.59 1008.05 1008.67 1009.16 1009.70 1009.91 1010.29 1010.75 1011.05 1011.47 1011.91 1012.15 1012.27 1012.46 1012.69 1012.73 1012.81 1012.83 1012.93 1013.11 1013.05
1010.78 1011.67 1012.34 1012.05 1010.72 1009.41 1008.02 1007.15 1005.99 1005.61 1004.44 1003.28 1002.63 1001.61 1001.04 1000.34 1000.54 1001.17 1001.70 1002.07 1002.49 1003.62 1004.50 1005.34 1006.24 1006.92 1006.86 1007.73 1007.95 1008.04 1008.58 1009.22 1009.67 1010.00 1010.37 1010.89 1011.28 1011.49 1011.89 1012.16 1012.44 1012.52 1012.68 1012.83 1012.93 1012.95 1013.01 1013.00 1013.08
1011.63 1012.33 1012.89 1012.25 1010.71 1009.25 1008.08 1007.07 1006.65 1005.69 1004.51 1003.67 1003.09 1002.57 1001.36 1001.02 1001.14 1002.31 1002.67 1002.95 1003.48 1003.42 1004.35 1005.04 1006.11 1006.93 1007.31 1007.53 1008.23 1008.39 1008.76 1009.20 1009.89 1010.13 1010.39 1011.05 1011.48 1011.65 1011.90 1012.22 1012.49 1012.59 1012.71 1012.80 1012.95 1013.11 1013.16 1013.09 1013.07
1012.11 1012.91 1012.67 1011.89 1010.90 1009.56 1008.28 1007.18 1006.73 1005.96 1005.18 1004.01 1003.69 1002.71 1001.86 1001.87 1001.63 1001.93 1002.60 1003.45 1004.07 1004.31 1004.68 1005.40 1006.13 1006.89 1007.60 1008.00 1008.27 1008.64 1009.09 1009.35 1009.95 1010.40 1010.59 1011.17 1011.68 1011.89 1012.06 1012.49 1012.72 1012.80 1013.01 1012.96 1013.01 1013.14 1013.17 1013.17 1013.05
1011.91 1012.51 1012.55 1011.85 1011.02 1009.66 1008.29 1007.45 1006.74 1006.03 1005.21 1004.63 1003.98 1003.88 1003.03 1001.55 1001.84 1002.42 1002.96 1003.71 1004.31 1004.70 1005.17 1005.73 1006.32 1007.08 1007.94 1008.52 1008.53 1008.77 1009.38 1009.59 1010.02 1010.56 1010.99 1011.48 1011.87 1012.13 1012.26 1012.66 1012.95 1012.91 1013.08 1013.16 1013.12 1013.17 1013.24 1013.16 1013.28
1011.35 1012.55 1012.75 1011.80 1010.87 1009.54 1008.52 1007.85 1006.28 1005.91 1005.41 1004.97 1004.71 1004.69 1003.00 1001.67 1002.00 1002.49 1003.46 1004.22 1004.78 1005.20 1005.54 1006.02 1006.51 1007.23 1007.95 1008.70 1009.13 1009.24 1009.58 1010.06 1010.33 1010.81 1011.23 1011.74 1012.17 1012.31 1012.44 1012.71 1012.99 1013.03 1013.11 1013.21 1013.31 1013.28 1013.31 1013.46 1013.51
1011.73 1012.33 1011.97 1011.06 1010.18 1009.36 1008.47 1007.81 1006.59 1006.05 1005.51 1004.93 1004.36 1004.27 1004.13 1005.21 1004.88 1002.63 1002.56 1003.51 1004.35 1004.89 1005.52 1005.74 1006.43 1007.17 1007.99 1008.66 1009.27 1009.82 1009.98 1010.34 1010.77 1011.01 1011.32 1011.81 1012.20 1012.39 1012.44 1012.68 1012.91 1013.01 1013.06 1013.21 1013.36 1013.47 1013.49 1013.49 1013.67
1011.49 1011.67 1010.87 1010.11 1009.21 1008.57 1008.20 1007.49 1006.63 1005.91 1005.73 1005.39 1005.09 1004.34 1004.43 1005.33 1007.17 1005.88 1001.88 1001.81 1002.47 1003.87 1005.01 1005.52 1005.86 1007.02 1007.97 1008.61 1009.30 1009.94 1010.42 1010.41 1010.99 1011.23 1011.48 1011.85 1012.37 1012.52 1012.60 1012.76 1012.90 1013.03 1013.11 1013.15 1013.33 1013.61 1013.67 1013.60 1013.59
1011.53 1010.79 1010.37 1009.68 1008.81 1008.62 1008.11 1007.13 1006.32 1005.75 1005.50 1005.07 1005.23 1004.78 1004.26 1004.14 1003.13 1002.31 1004.51 1002.47 1002.64 1003.63 1004.23 1005.10 1005.61 1006.47 1007.75 1008.44 1009.41 1009.82 1010.40 1010.50 1010.72 1011.06 1011.44 1011.90 1012.30 1012.48 1012.71 1012.77 1012.99 1013.05 1013.02 1013.29 1013.35 1013.48 1013.59 1013.65 1013.55
1011.22 1010.95 1010.24 1009.69 1009.01 1008.31 1007.54 1007.09 1006.41 1005.37 1005.10 1004.75 1004.57 1005.24 1004.70 1004.37 1004.39 1004.59 1005.27 1003.22 1002.16 1003.66 1004.53 1005.15 1005.73 1005.93 1007.09 1008.46 1009.23 1009.78 1010.22 1010.44 1010.55 1010.87 1011.28 1011.76 1012.06 1012.33 1012.42 1012.68 1012.98 1013.12 1012.98 1013.05 1013.45 1013.60 1013.29 1013.46 1013.73
1011.42 1010.79 1010.04 1009.21 1008.61 1007.94 1007.56 1006.93 1006.39 1004.82 1004.21 1004.74 1004.44 1004.72 1004.77 1004.28 1004.15 1004.15 1003.39 1002.35 1002.91 1004.55 1004.57 1005.13 1005.79 1006.24 1006.93 1007.90 1008.92 1009.54 1009.83 1010.33 1010.59 1010.75 1011.25 1011.65 1011.99 1012.23 1012.49 1012.73 1012.92 1012.99 1012.92 1012.97 1013.32 1013.64 1013.58 1013.54 1013.31
1011.65 1011.04 1010.03 1009.15 1008.48 1007.85 1007.65 1006.90 1005.92 1004.63 1004.75 1004.48 1004.36 1003.39 1004.47 1004.10 1003.57 1003.84 1004.67 1004.18 1003.99 1004.72 1005.80 1005.31 1005.97 1006.83 1006.79 1007.50 1008.11 1009.05 1009.50 1010.29 1010.65 1010.53 1011.04 1011.37 1011.50 1011.75 1012.06 1012.49 1012.57 1012.54 1012.69 1012.65 1013.08 1013.34 1013.40 1013.72 1013.75
1011.97 1011.54 1010.77 1009.10 1008.54 1007.61 1007.93 1006.84 1004.80 1004.99 1004.99 1004.29 1004.19 1003.71 1002.87 1003.81 1003.18 1002.95 1003.85 1004.14 1004.43 1004.48 1005.59 1006.21 1005.68 1006.27 1007.05 1007.42 1007.99 1008.47 1009.28 1009.81 1010.11 1010.34 1010.76 1011.15 1011.32 1011.37 1011.69 1012.02 1012.15 1012.13 1012.34 1012.61 1013.16 1013.70 1013.77 1014.12 1014.15
1012.40 1012.08 1010.92 1009.51 1008.03 1007.68 1007.53 1006.05 1005.15 1004.74 1004.83 1004.18 1003.76 1003.62 1002.85 1002.49 1003.20 1002.35 1003.28 1003.58 1004.28 1004.64 1004.92 1005.68 1005.72 1005.32 1005.90 1006.89 1007.82 1007.94 1008.70 1009.36 1009.56 1010.05 1010.51 1010.99 1011.04 1011.18 1011.47 1011.79 1012.08 1012.44 1012.79 1013.10 1013.42 1013.77 1014.02 1014.46 1014.62
1012.39 1011.69 1010.58 1009.67 1007.94 1007.38 1006.91 1005.83 1005.14 1005.03 1004.61 1003.92 1003.56 1003.17 1003.00 1002.43 1002.20 1002.09 1002.71 1003.09 1004.03 1004.65 1005.04 1004.77 1005.27 1005.37 1005.56 1005.87 1007.36 1008.07 1008.39 1008.90 1009.12 1009.94 1010.27 1010.61 1011.01 1011.13 1011.45 1011.90 1012.15 1012.37 1012.85 1013.37 1013.69 1014.04 1014.52 1015.03 1014.88
1011.36 1010.93 1009.93 1009.01 1008.09 1007.70 1006.71 1005.53 1004.91 1004.79 1004.37 1003.94 1003.45 1003.03 1002.83 1002.29 1001.86 1001.68 1002.12 1002.75 1003.66 1004.44 1005.04 1005.38 1005.08 1005.30 1005.25 1005.46 1006.13 1007.44 1008.58 1008.96 1009.22 1009.69 1010.09 1010.18 1010.66 1011.09 1011.86 1012.32 1012.67 1012.96 1013.24 1013.66 1013.96 1014.32 1014.70 1015.23 1015.13
1010.32 1010.02 1009.08 1007.96 1007.51 1007.24 1006.42 1004.57 1004.37 1004.39 1004.09 1003.57 1003.17 1002.73 1002.30 1002.08 1001.66 1001.46 1001.71 1002.57 1003.54 1003.91 1004.41 1005.07 1004.75 1004.83 1004.87 1005.02 1005.04 1006.52 1007.33 1008.52 1008.66 1009.21 1009.88 1010.05 1010.64 1011.00 1011.80 1012.26 1013.05 1013.40 1013.67 1014.12 1014.37 1014.41 1015.21 1015.71 1015.47
1009.38 1009.20 1008.62 1007.71 1007.06 1006.76 1006.41 1003.57 1004.29 1003.51 1003.47 1003.00 1002.35 1001.91 1001.65 1001.40 1000.98 1000.95 1001.27 1002.37 1002.70 1003.66 1003.96 1004.37 1004.72 1004.38 1004.57 1005.25 1005.39 1006.50 1007.38 1007.83 1008.08 1009.31 1009.64 1010.11 1010.85 1011.21 1011.71 1012.23 1013.06 1013.50 1013.85 1014.56 1014.61 1014.85 1015.11 1015.81 1016.03
1008.32 1008.70 1008.27 1007.79 1007.58 1006.98 1006.83 1004.13 1003.60 1003.69 1002.73 1002.29 1001.92 1001.67 1001.25 1000.91 1000.51 1000.54 1001.01 1001.53 1002.23 1002.90 1003.10 1003.18 1004.13 1004.17 1004.35 1005.13 1005.31 1005.91 1006.26 1005.83 1007.50 1009.12 1009.59 1010.37 1010.76 1011.49 1011.66 1012.47 1013.02 1013.62 1014.21 1014.81 1015.09 1015.25 1015.41 1015.65 1016.36
1008.69 1008.78 1008.55 1008.23 1007.89 1007.44 1007.07 1006.42 1000.07 1002.65 1001.97 1001.99 1001.54 1001.11 1000.70 1000.41 1000.14 1000.30 1000.47 1000.55 1001.47 1002.10 1002.68 1002.95 1003.34 1003.91 1003.88 1004.56 1004.87 1005.43 1005.54 1006.29 1007.30 1008.75 1009.49 1010.49 1011.32 1011.29 1012.11 1012.71 1013.18 1013.95 1014.78 1015.15 1015.34 1015.57 1015.67 1015.91 1016.59
1009.25 1009.55 1009.19 1008.41 1008.61 1007.75 1006.86 1006.35 999.55 1002.13 1001.28 1000.75 1000.51 1000.34 999.94 999.82 999.43 999.17 999.42 999.67 1000.65 1001.42 1001.99 1002.49 1002.83 1003.32 1003.67 1003.75 1004.15 1005.16 1005.55 1006.30 1007.43 1008.49 1009.46 1010.61 1011.39 1011.80 1012.53 1012.97 1013.87 1014.37 1014.95 1015.40 1015.49 1015.97 1016.14 1016.53 1016.81
1009.81 1010.51 1010.54 1009.67 1009.15 1006.91 1006.23 1005.08 1001.58 1001.36 1000.55 1000.09 999.97 999.44 999.25 999.13 998.87 998.59 998.73 999.03 999.98 1000.64 1001.27 1001.89 1002.25 1002.45 1002.99 1003.41 1004.19 1005.08 1005.72 1006.48 1007.37 1008.25 1008.82 1010.41 1011.49 1012.36 1012.87 1013.18 1014.29 1014.67 1015.07 1015.41 1015.85 1016.53 1016.95 1017.23 1017.05
1010.19 1010.64 1010.99 1010.16 1009.13 1007.93 1006.73 1004.58 1001.87 1000.61 999.66 998.99 998.78 998.63 998.48 998.46 998.26 997.92 998.09 998.39 998.81 999.25 1000.20 1001.20 1001.95 1002.07 1002.59 1002.99 1004.03 1005.05 1005.71 1006.93 1007.73 1008.18 1008.80 1010.41 1011.61 1012.82 1013.07 1013.62 1014.23 1014.76 1015.13 1015.86 1016.29 1016.84 1017.25 1017.39 1017.23
1009.54 1009.90 1009.64 1009.99 1009.46 1008.37 1006.08 1003.68 1001.62 1000.17 999.73 999.43 998.31 998.49 998.45 998.04 997.44 996.89 996.98 997.61 997.75 998.20 998.69 999.55 1000.66 1001.47 1002.05 1002.87 1003.97 1004.92 1005.43 1006.74 1008.07 1008.51 1009.33 1010.85 1012.16 1012.93 1013.41 1014.03 1014.54 1015.25 1015.81 1016.19 1016.48 1017.05 1017.49 1017.52 1017.91
1008.80 1009.14 1009.90 1010.17 1009.04 1007.47 1005.28 1003.43 1001.69 1000.40 999.95 999.49 998.97 998.68 998.18 997.75 997.40 996.59 996.31 996.68 996.73 996.79 997.42 998.18 999.34 1000.77 1001.76 1003.01 1004.05 1004.49 1005.94 1007.12 1007.95 1009.39 1010.20 1011.59 1012.65 1012.81 1013.59 1014.61 1015.03 1015.84 1016.09 1016.54 1016.97 1017.35 1017.63 1018.10 1018.79
1008.50 1008.68 1009.05 1009.48 1008.90 1007.56 1005.13 1002.25 1000.46 1000.09 999.83 999.51 998.99 998.59 998.15 997.33 997.02 996.63 996.27 996.02 995.81 996.29 996.74 997.64 998.90 1000.03 1001.57 1002.93 1003.99 1004.51 1006.07 1006.45 1009.21 1009.48 1010.47 1011.49 1012.31 1013.06 1013.94 1015.04 1015.54 1015.90 1016.35 1017.03 1017.21 1017.38 1018.16 1018.79 1019.33
1008.05 1008.19 1008.77 1008.79 1007.92 1006.84 1005.35 1000.49 999.61 999.61 999.80 999.44 999.17 998.75 998.47 997.41 996.62 996.13 995.73 995.91 995.51 995.47 996.43 996.93 998.32 999.63 1000.83 1002.68 1003.91 1005.49 1004.44 1007.75 1007.81 1008.69 1010.09 1010.46 1012.01 1013.40 1014.56 1015.00 1015.64 1016.19 1016.86 1017.29 1017.31 1018.20 1019.03 1019.39 1019.89
Wind_Speed
7 7 1 4 4 5 4 9 5 13 4 0 4 2 15 7 9 7 2 15 21 18 18 19 21 21 21 20 21 20 20 21 21 19 18 17 17 18 17 16 15 14 15 14 14 13 12 11 10
4 4 3 2 5 2 7 6 12 15 1 12 15 1 3 7 1 9 13 18 26 19 16 16 24 21 22 21 21 21 20 20 21 20 18 18 17 17 16 16 15 13 15 14 12 11 10 9 8
3 2 4 4 5 8 7 5 10 13 6 8 10 9 5 5 4 11 14 21 21 17 16 16 21 24 22 22 22 22 22 21 20 20 19 17 17 16 15 14 14 13 13 13 12 11 10 8 7
2 4 4 3 11 8 7 8 6 18 15 5 4 8 2 8 11 9 23 24 20 17 15 20 20 21 22 21 23 23 22 22 21 19 19 17 17 16 14 13 12 12 12 11 10 10 9 7 6
3 3 1 3 9 6 8 7 10 11 12 12 7 8 1 5 11 20 20 21 24 19 16 18 20 19 23 21 21 23 23 21 21 20 19 18 17 16 14 13 11 11 11 11 10 9 8 7 5
4 3 1 6 8 6 8 10 8 9 11 14 13 7 4 12 19 13 13 15 14 19 17 17 21 19 19 22 21 21 22 22 20 20 19 18 16 15 14 13 12 11 10 10 9 8 7 7 7
5 4 5 4 5 7 7 6 7 6 8 8 14 6 4 9 14 16 15 13 12 13 14 14 15 17 19 19 21 20 20 21 21 18 18 17 15 14 13 11 10 9 8 8 7 7 8 8 8
4 4 3 3 2 7 6 12 6 6 13 10 5 8 9 14 17 15 14 13 12 12 12 14 12 14 12 12 19 20 19 20 19 18 17 16 14 13 12 10 9 9 9 8 8 8 8 10 7
3 3 2 4 4 6 10 8 8 5 7 6 7 7 15 16 19 17 14 11 11 10 12 13 14 13 11 12 12 17 20 18 18 16 16 12 5 7 9 8 9 9 9 8 8 8 8 8 7
4 4 6 7 6 9 9 7 17 9 10 4 14 15 17 17 9 20 20 17 15 15 14 15 15 13 11 10 11 7 11 8 8 9 10 6 5 5 7 8 10 10 9 8 8 7 8 7 3
3 6 9 12 13 11 11 8 5 6 5 5 9 11 8 4 5 21 21 24 25 18 13 16 17 14 13 11 7 5 4 6 6 10 6 5 5 4 3 2 3 3 7 3 4 4 4 5 4
4 7 7 10 10 5 7 4 8 7 5 6 5 9 7 10 10 5 18 16 18 19 19 18 18 17 11 9 7 7 7 6 8 8 7 6 4 4 4 3 4 4 3 4 4 3 4 6 6
3 5 10 8 8 7 4 7 6 13 7 5 9 3 9 9 5 4 13 18 9 15 15 15 16 18 15 11 7 7 6 6 7 7 8 6 5 6 4 4 3 4 2 4 3 4 5 2 3
6 14 15 7 10 6 5 8 6 20 16 5 10 6 6 10 8 5 9 7 7 4 16 14 13 14 16 12 9 6 4 4 5 6 6 6 4 4 5 4 5 4 4 3 3 4 3 3 2
12 12 15 9 6 8 5 12 15 18 11 13 10 17 6 9 8 6 7 3 9 7 5 14 10 10 14 13 12 7 5 5 5 5 6 8 6 6 6 5 4 5 4 5 4 4 4 3 4
8 5 5 7 5 9 7 18 25 12 11 19 11 13 14 6 10 7 7 8 8 15 15 7 12 12 10 10 9 8 6 5 5 4 5 9 7 8 6 5 5 4 2 3 3 3 6 4 3
4 6 9 11 4 9 8 19 12 11 11 17 15 9 13 9 7 9 5 9 13 15 19 13 14 16 15 11 9 10 10 6 5 4 5 7 6 6 5 4 3 4 4 4 5 5 4 3 3
7 8 7 8 13 15 13 18 13 8 9 15 17 12 9 12 11 9 5 9 13 14 16 18 14 15 12 10 5 4 6 6 6 5 6 7 5 5 4 2 4 5 6 5 6 7 4 3 2
16 19 21 20 17 10 18 21 17 9 8 9 9 11 8 10 8 8 3 11 13 15 16 11 14 13 10 11 9 5 8 7 6 6 6 8 6 6 6 4 6 4 5 5 5 4 6 5 3
20 21 23 24 20 18 16 25 19 6 9 8 11 13 10 6 6 6 3 7 17 18 18 14 15 17 16 12 10 12 10 8 8 6 6 6 6 8 7 8 6 5 7 6 4 3 3 2 3
13 12 14 19 9 9 14 30 17 16 8 9 11 9 10 13 14 6 6 9 13 16 18 17 15 19 15 9 6 6 5 4 4 4 5 4 8 10 10 9 7 6 5 5 4 4 4 3 3
19 11 17 20 15 13 7 24 19 9 19 17 16 13 11 14 12 6 8 6 15 17 19 21 20 18 14 10 9 12 13 10 4 6 5 8 10 10 9 9 8 6 4 5 4 4 3 4 3
7 14 12 8 9 8 10 10 24 11 17 16 17 15 13 13 12 10 9 8 15 16 16 19 20 18 17 14 13 9 10 8 7 9 13 12 8 10 9 8 8 8 4 5 6 5 6 4 4
5 6 8 4 4 12 8 14 24 13 14 17 15 12 13 12 14 15 9 9 10 17 18 19 21 20 16 16 15 10 11 13 11 12 12 9 8 8 9 9 8 7 6 6 6 6 7 6 5
2 3 5 4 0 11 4 14 19 8 10 13 14 17 18 14 12 16 9 9 9 18 20 19 22 22 20 19 17 10 10 15 17 16 13 13 8 7 9 12 8 6 6 6 7 6 6 4 5
10 8 6 6 3 8 1 9 8 10 14 17 17 13 11 12 12 15 14 13 13 15 22 21 21 19 21 19 14 11 11 8 9 12 13 10 9 8 11 10 9 8 8 7 6 5 5 6 7
6 4 7 6 12 10 5 7 11 15 12 11 16 8 10 10 14 16 15 11 13 13 20 23 22 21 20 17 12 13 12 14 10 11 13 10 10 10 12 10 10 8 7 7 7 5 5 7 7
11 6 2 3 5 6 6 8 9 5 4 7 8 5 8 9 8 8 8 10 11 12 15 20 21 23 21 17 13 12 7 14 14 13 14 13 12 14 13 9 9 8 7 7 7 6 6 7 5
2 2 3 4 4 4 5 7 8 8 7 8 8 9 9 9 7 8 7 8 16 14 15 20 20 19 18 17 17 16 18 18 18 16 17 15 14 13 12 9 9 9 8 6 7 7 7 8 7
10 10 8 5 5 6 4 14 6 9 5 6 9 8 6 8 7 7 9 4 13 12 14 17 16 17 20 22 21 16 24 22 19 17 17 19 18 13 11 9 8 8 7 6 7 7 6 9 9
Wind_Direction
325 299 229 39 63 65 252 251 268 282 306 137 268 193 189 172 167 212 164 154 137 147 150 147 146 143 138 137 134 132 129 125 120 117 117 117 117 116 116 117 117 119 123 124 123 123 122 116 109
311 310 47 78 99 99 265 234 243 254 353 322 321 46 254 230 246 131 124 151 145 146 148 151 148 144 142 141 138 134 132 129 126 122 123 122 120 119 119 121 123 126 127 125 124 121 118 116 112
273 222 95 137 157 202 220 242 247 276 333 327 305 321 163 216 126 150 136 146 137 144 144 153 151 146 148 147 143 139 136 134 132 128 128 125 123 122 124 126 130 136 135 131 132 129 125 124 121
345 13 13 145 227 254 214 289 300 312 313 285 304 326 331 251 161 157 146 143 139 141 145 149 153 151 148 152 146 141 141 139 137 133 130 130 129 128 130 135 140 142 142 139 141 138 132 138 138
43 67 305 239 251 261 283 278 290 299 297 294 316 298 9 347 86 133 145 149 145 144 143 147 153 159 152 153 149 145 144 142 142 139 135 137 137 137 140 142 147 149 149 151 153 147 144 153 169
12 86 92 238 260 298 295 283 323 296 293 315 357 292 220 127 121 135 138 140 146 141 142 147 155 160 158 153 154 148 146 144 145 144 141 142 144 145 146 151 156 157 156 160 162 155 159 178 202
129 92 227 255 276 300 282 326 304 316 343 331 313 283 157 144 141 140 138 122 137 135 137 146 153 157 161 157 153 149 149 147 148 150 145 145 146 147 148 153 159 158 165 169 167 166 183 206 217
131 103 254 266 297 276 298 318 308 18 320 330 358 39 267 172 152 136 128 127 128 136 140 146 144 157 160 160 155 150 152 150 149 151 146 143 147 149 149 155 171 174 182 182 183 189 205 223 229
89 51 300 279 307 268 309 315 307 280 315 321 349 347 345 159 147 137 128 133 136 144 148 152 147 152 154 161 161 151 151 151 149 149 144 141 147 156 160 167 183 191 194 194 201 205 223 244 249
118 137 230 216 247 272 279 281 300 324 324 322 331 353 7 23 313 156 157 156 163 162 163 155 153 147 154 157 154 152 153 146 151 153 150 144 155 166 164 178 193 203 203 205 216 223 239 254 258
236 209 245 268 254 252 266 282 261 293 302 292 305 320 332 142 254 270 169 166 175 165 161 163 150 148 157 155 146 145 153 147 154 160 150 146 161 179 172 188 197 199 215 208 213 248 246 255 256
278 249 246 271 270 290 272 248 286 237 251 270 295 298 306 318 299 72 343 183 162 171 168 161 152 147 145 153 149 155 164 166 166 171 165 160 166 171 180 182 201 206 207 205 207 217 240 249 267
238 322 317 295 273 251 282 294 257 283 240 303 308 343 302 296 300 245 166 280 169 162 163 161 155 149 143 151 153 158 167 173 166 167 182 178 170 185 174 176 194 228 209 202 215 237 235 271 252
303 311 304 309 305 298 302 288 345 281 288 309 299 279 249 282 285 328 5 344 137 205 159 153 155 150 146 146 149 158 149 166 170 172 190 182 180 187 187 178 203 222 218 208 200 231 248 252 237
307 316 316 302 292 281 351 308 263 270 302 285 274 284 238 253 282 278 114 289 163 142 151 145 129 143 147 152 149 149 155 164 179 171 174 192 195 191 183 195 200 206 227 231 195 257 166 113 71
313 313 324 280 323 279 124 267 267 268 261 270 262 270 280 214 264 267 112 124 141 140 151 166 140 140 150 152 157 149 157 170 172 168 177 197 208 182 177 189 200 197 230 147 119 99 87 88 88
317 261 271 293 283 265 177 262 284 268 247 262 265 245 272 278 251 276 115 157 160 158 150 160 164 158 155 152 169 162 161 165 170 168 181 192 215 186 167 180 165 135 126 99 110 75 85 72 39
260 278 277 277 301 301 286 276 282 264 249 252 261 250 262 278 263 259 147 150 159 159 170 167 161 158 146 131 156 158 164 166 167 172 191 183 201 173 148 93 92 96 105 96 100 102 65 98 72
254 261 269 267 282 279 289 283 283 272 267 259 257 268 232 259 260 253 181 148 160 168 171 189 165 167 151 163 157 151 181 181 176 182 194 179 177 132 100 81 82 66 91 110 107 106 79 30 23
249 258 269 270 270 263 271 277 286 258 258 250 257 264 263 249 254 259 264 153 162 172 182 188 179 171 176 183 181 172 171 181 180 167 173 173 157 117 119 112 98 94 107 94 107 102 104 92 1
277 280 289 285 288 269 289 276 272 272 252 253 252 250 256 252 260 234 239 167 166 175 176 186 194 183 176 192 156 129 120 107 110 166 158 121 119 119 123 113 113 108 108 122 125 110 111 121 14
282 291 290 290 292 287 185 281 261 267 266 249 250 248 249 251 254 235 213 192 169 186 183 182 188 190 185 178 169 174 183 147 143 164 124 115 124 119 113 116 121 105 93 92 80 75 104 109 118
301 309 299 304 297 295 231 267 277 221 255 249 250 249 244 246 248 235 205 217 180 179 186 193 184 191 184 183 182 191 179 143 144 132 123 120 112 114 113 111 103 98 90 91 101 81 73 62 88
23 358 310 239 150 257 198 218 267 256 256 250 240 237 243 238 245 249 205 215 159 180 186 190 191 198 195 191 185 181 153 144 137 137 127 126 124 114 108 101 97 104 109 107 96 89 84 94 90
38 10 319 298 254 256 185 242 263 272 291 262 245 237 244 242 233 244 219 205 173 177 187 191 190 195 200 196 190 171 153 147 146 143 133 133 123 124 123 113 116 112 113 102 93 87 85 81 84
261 182 179 269 236 293 69 247 252 222 245 265 244 238 235 245 236 237 231 217 192 175 183 185 190 194 199 189 185 173 151 147 144 142 130 121 128 128 123 114 119 111 103 105 105 101 101 89 77
276 163 225 253 259 254 235 275 285 255 259 282 271 222 232 258 238 225 223 191 199 180 184 186 186 196 194 184 166 174 161 144 132 125 117 126 131 129 117 117 115 110 118 113 106 106 99 88 80
199 189 345 187 255 247 256 243 237 283 277 304 315 281 262 271 277 224 219 178 192 182 179 182 185 190 190 185 183 180 174 148 125 128 127 134 134 121 117 121 119 125 115 108 111 108 96 91 79
327 203 178 210 228 262 288 245 216 213 224 259 269 266 274 286 299 311 256 196 186 180 172 181 184 180 175 162 161 164 147 145 150 139 139 137 122 122 123 135 128 123 117 122 113 101 100 97 89
256 262 237 237 222 221 260 261 201 192 245 297 293 301 289 278 277 289 291 219 181 168 181 176 178 169 155 148 148 144 145 171 145 140 141 132 129 125 131 122 123 126 124 122 113 110 110 100 90